Location: Chavenne
(46.6022°N, 3.2951°E)
Time: 19:55:05
(UTC+00:00)

Meteor 2-10 Rocket - Pass Details

Date: 09 April 2020
Orbit: 734 x 885 km, 81.2° (Epoch: 31 May)

Event Time Altitude Azimuth Distance (km) Brightness Sun altitude
Exits shadow 20:33:49 37° 95° (E) 1,221 4.1 -20.4°
Maximum altitude 20:33:59 37° 91° (E) 1,220 4.1 -20.4°
Drops below altitude 10° 20:38:56 10° 26° (NNE) 2,415 6.2 -21.1°
Sets 20:41:32 0° 18° (NNE) 3,377 7.1 -21.5°
